Location: Lafig�re
(44.4503°N, 4.0357°E)
Time: 16:01:27
(UTC+00:00)

CSL-04 Rocket - Pass Details

Date: 24 September 2020
Orbit: 806 x 860 km, 98.9° (Epoch: 20 October)

Event Time Altitude Azimuth Distance (km) Brightness Sun altitude
Rises 18:23:47 0° 157° (SSE) 3,368 6.5 -9.2°
Reaches altitude 10° 18:26:08 10° 155° (SSE) 2,446 5.8 -9.6°
Maximum altitude 18:31:31 71° 72° (ENE) 897 3.7 -10.5°
Drops below altitude 10° 18:37:02 10° 350° (N) 2,493 6.4 -11.5°
Sets 18:39:26 0° 348° (NNW) 3,438 7.2 -11.9°
